Find Starlink 2757

NORAD ID: 48604 Int'l Des: 2021-041 Owner: SPXS Country: US Constellation: starlink operational
LEOCIRCULARSTARLINK_TYPE

リアルタイム位置

3D地球を読み込み中...

Starlink 2757について

説明を読み込み中...

次回通過

Passes for default location (London). Set your location on the main map for personalized predictions.

高度履歴

Loading altitude history...

軌道要素

1 48604U 21041BD 26105.92787536 .00000057 00000-0 22713-4 0 9992
2 48604 53.0538 334.4495 0001557 98.4448 261.6718 15.06395467271945
Epoch: Apr 15, 2026 • Age: 28 hours

現在のステータス

高度 565.6 km
速度 7.58 km/s
衛星直下点 -50.44°S, 28.11°W
打ち上げ日 May 15, 2021
運用期間 4.9 years
タイプ internet

技術仕様

分類 Payload
質量 260.00 kg
乾燥質量 248.00 kg
総質量 260.00 kg
長さ 0.20 m
直径 2.80 m
スパン 9.00 m
形状 Box + pan
製造者 SPXS
バスタイプ Starlink
フェーズステータス In Orbit
所有者/国 SPXS/US

Most Searched